Temp
35 33 32 31 33 35 36 37 36 36 37 36 34 32 30 29 28 32 33 32 33 32 32 34 35 33 30 29 30 30 31 31 31 32 31 31 32 28 25 26 27 27 27 27 27 27 27 27 27 27 27 27 27 27 27 26 26 25 24 23 22 22 22 22 21 21 21 21 21 21 21 21 21 22 22 22 22 22 23 23 23 23 23 24 23 22
35 31 32 35 36 37 37 37 37 37 37 36 34 31 30 30 30 34 34 33 34 31 31 34 35 33 31 30 31 31 31 31 30 30 30 30 30 25 23 25 26 26 26 26 26 26 26 27 27 27 27 27 27 27 27 26 26 26 24 23 22 22 22 22 21 21 21 21 21 21 21 21 22 22 22 22 23 23 22 22 23 23 24 24 23 22
33 31 34 37 37 37 37 37 36 36 36 35 34 31 28 30 32 33 34 34 33 31 32 34 33 33 32 31 31 31 30 30 29 28 27 28 28 25 23 25 24 25 26 26 26 26 27 27 27 27 27 27 27 27 27 26 25 26 25 23 23 22 22 22 22 22 21 21 21 22 22 22 21 22 22 23 24 23 22 22 23 24 24 24 23 22
28 32 37 37 37 36 36 36 36 35 35 35 33 29 27 31 31 28 31 34 33 32 33 34 32 32 32 30 30 30 30 29 28 28 27 26 27 26 25 24 24 25 25 26 26 26 27 26 25 26 26 27 27 27 27 26 26 25 25 24 23 23 22 22 22 22 22 21 22 22 22 22 22 22 23 23 23 23 23 23 23 24 24 24 24 22
31 35 37 36 36 36 35 35 36 34 32 34 35 31 29 33 33 30 32 33 33 33 34 33 28 28 31 30 30 30 30 30 28 28 27 26 26 26 25 24 24 25 26 26 26 26 25 24 24 24 24 25 25 26 27 26 26 25 25 24 23 23 23 22 22 22 22 22 22 22 22 22 22 22 22 22 23 24 24 23 23 24 24 24 24 22
35 37 37 36 36 36 35 35 36 34 30 31 35 35 34 35 35 35 35 32 28 27 32 32 24 24 30 30 30 30 31 30 28 28 27 25 25 25 24 24 23 24 26 27 26 26 25 25 24 23 24 24 23 25 27 26 26 25 24 24 23 23 23 22 22 22 22 22 22 22 22 22 22 22 22 23 24 24 24 24 24 24 24 24 24 22
36 37 36 36 35 36 35 34 36 36 30 27 33 38 37 37 35 35 35 30 25 24 30 32 25 22 27 28 29 30 30 30 28 28 26 25 25 24 24 23 22 23 25 26 25 26 26 25 25 23 23 23 22 25 27 26 26 26 24 24 23 23 23 22 22 22 22 22 22 22 22 22 22 23 23 24 24 24 24 24 25 25 25 25 25 23
37 37 36 36 36 35 34 33 36 37 30 28 34 37 36 37 35 34 34 29 27 28 29 31 27 23 23 25 29 30 29 29 29 27 26 25 24 24 23 22 23 23 24 25 25 25 25 25 24 23 23 23 22 25 28 27 27 26 24 24 23 23 23 22 22 22 22 22 22 22 23 23 23 24 24 24 24 24 25 25 25 26 25 25 25 24
37 36 36 36 35 34 34 35 37 37 33 32 36 37 35 36 35 35 33 29 30 28 23 26 28 24 22 25 29 29 27 28 28 27 26 25 25 24 23 23 24 25 25 25 25 25 25 24 23 22 23 23 22 24 28 27 26 26 25 24 23 23 23 22 22 22 22 22 22 23 24 24 24 24 24 25 25 25 25 26 26 26 26 26 25 25
37 36 36 36 35 35 36 37 38 37 35 36 36 36 36 36 36 36 33 29 28 25 22 24 26 23 22 24 27 27 26 28 29 28 27 26 26 25 24 24 25 26 25 24 24 24 23 23 23 22 23 23 22 25 27 26 26 26 25 24 23 23 23 23 22 22 22 23 23 23 24 24 24 25 25 25 26 26 26 26 26 26 26 26 25 25
37 37 37 36 35 36 36 37 37 37 36 36 36 35 35 35 35 34 32 29 25 23 23 25 26 25 22 23 26 27 27 28 29 28 27 27 26 25 24 25 26 26 24 24 23 23 23 23 23 22 23 23 22 24 26 25 26 26 25 25 24 23 24 23 23 23 23 23 23 23 24 24 24 25 26 26 26 26 26 26 26 26 26 26 26 25
37 36 36 36 36 36 36 36 37 37 36 36 36 34 30 29 30 28 27 26 23 22 24 26 27 26 22 23 28 29 28 27 27 27 28 27 27 26 25 25 27 26 24 24 24 23 23 23 23 23 23 23 23 24 25 24 26 27 25 25 24 24 24 23 23 23 23 23 23 24 24 24 25 26 26 26 26 26 26 25 26 26 26 26 26 25
35 36 36 37 37 37 36 34 34 36 36 36 34 30 25 23 24 23 22 23 22 22 25 27 27 25 23 26 29 28 28 27 27 27 28 29 28 27 26 26 27 26 25 25 25 25 24 24 24 24 24 25 25 25 25 23 25 27 26 25 25 24 24 24 24 24 24 24 24 24 25 25 25 26 26 26 26 26 25 26 26 26 26 26 26 26
30 34 37 36 36 37 36 32 29 31 34 34 31 26 23 23 22 22 22 23 23 23 25 28 27 24 24 27 29 29 28 28 28 27 28 29 28 28 28 27 28 27 26 26 26 26 26 26 26 26 25 27 27 25 25 23 24 26 27 26 25 25 24 24 24 24 24 24 25 25 25 25 26 26 26 26 26 26 26 26 26 26 26 26 27 27
25 27 33 35 34 35 37 35 32 33 34 34 36 32 25 24 23 22 23 22 23 23 25 27 26 23 23 25 29 29 29 29 28 28 29 29 29 29 29 28 28 27 26 27 28 27 27 27 27 27 27 27 26 25 25 24 24 25 26 26 25 25 25 25 24 24 25 25 25 25 25 26 26 26 26 26 26 26 26 26 26 26 26 26 27 27
24 25 34 36 35 36 36 37 37 35 32 34 38 33 26 27 27 24 24 24 23 23 24 24 24 25 26 28 31 30 30 31 30 29 29 28 28 29 29 29 28 27 26 26 27 27 27 28 27 27 27 26 25 25 24 25 25 25 24 25 26 25 25 25 25 25 25 25 25 25 25 26 26 26 26 26 26 26 26 27 27 27 27 27 27 27
24 25 35 37 35 37 36 36 38 34 30 32 32 28 30 35 32 24 23 25 24 23 23 24 24 26 27 28 31 31 30 30 29 30 29 28 28 28 28 29 28 28 27 26 27 27 26 27 27 27 27 25 25 25 24 24 25 25 23 24 25 26 25 25 25 25 25 25 25 25 25 26 26 26 26 26 27 27 27 27 27 27 27 27 27 27
27 25 33 36 34 36 37 36 37 37 35 31 28 29 34 35 33 27 23 23 23 22 23 24 23 24 24 24 28 31 30 29 29 30 29 28 28 28 28 29 28 28 28 27 27 27 27 27 28 28 27 25 25 24 24 24 25 25 25 23 24 26 26 26 26 26 25 25 25 25 25 26 26 26 27 27 27 27 27 27 27 27 27 27 27 27
32 25 30 37 34 35 38 35 33 35 38 34 31 35 33 27 26 26 23 23 23 22 23 23 24 24 22 23 27 29 30 30 29 29 29 29 28 28 28 29 28 28 28 27 27 27 27 28 28 28 27 26 25 24 24 24 24 25 25 25 24 25 27 26 26 26 26 26 26 26 26 26 26 27 27 27 27 28 28 27 27 27 27 28 28 28
35 26 26 34 36 35 36 33 29 30 35 36 34 36 34 29 26 25 25 24 23 22 23 23 23 23 23 26 28 29 30 30 29 29 29 29 28 28 28 28 28 28 28 28 28 27 27 27 28 28 27 26 25 24 24 24 24 25 25 26 25 24 26 27 27 27 27 26 27 26 26 26 26 27 27 28 28 28 28 28 28 28 28 28 28 28
36 29 24 30 36 33 31 32 30 30 32 32 30 30 30 30 29 28 27 26 24 23 22 23 22 22 25 29 30 29 30 30 29 29 28 28 28 27 27 28 28 28 28 28 28 28 27 27 28 27 27 27 25 24 24 24 24 25 24 26 26 25 26 28 28 27 27 27 27 27 27 27 27 27 28 28 28 28 28 28 28 28 28 28 28 28
34 31 25 26 29 27 29 34 35 34 34 32 30 29 29 29 27 25 24 25 25 24 23 23 22 22 26 29 29 29 29 29 29 29 29 29 28 27 27 27 27 27 28 27 28 29 28 28 28 27 27 27 26 24 24 24 24 24 24 25 26 26 26 28 29 28 27 28 28 28 27 27 27 27 28 28 28 28 28 28 28 29 29 29 28 28
35 33 27 24 27 30 33 36 35 34 35 34 33 33 33 32 27 23 22 24 24 24 24 24 22 23 28 30 29 28 29 29 29 29 29 29 28 28 27 28 27 27 27 27 27 28 29 29 28 28 27 27 26 25 24 24 24 24 24 25 26 26 26 27 29 29 28 28 28 28 28 28 28 27 28 28 28 28 29 29 29 29 29 29 29 28
34 32 26 24 28 32 35 36 36 36 35 33 33 35 34 32 30 28 27 26 24 23 24 23 22 23 28 30 29 27 28 29 28 28 29 28 28 28 28 28 28 27 27 27 26 27 28 28 28 28 27 26 26 25 24 24 24 24 24 25 25 26 26 26 28 28 28 28 28 28 28 28 28 28 28 28 28 28 29 29 29 29 29 29 29 29
31 29 27 23 24 26 28 30 30 32 33 32 33 35 34 33 33 31 30 28 25 23 24 23 22 24 28 30 29 28 28 28 28 28 27 27 28 28 28 28 28 27 27 26 26 26 26 27 27 27 27 26 25 25 24 24 24 24 24 24 25 25 26 26 27 26 26 28 29 28 29 29 28 28 28 28 29 29 29 29 29 29 28 29 29 29
31 30 28 23 21 22 23 23 25 27 30 32 32 33 34 34 33 30 27 24 23 23 24 23 22 25 29 31 30 29 29 28 28 28 26 26 26 27 27 28 27 27 27 27 26 26 25 26 26 27 27 26 26 25 24 24 24 24 24 24 25 26 26 26 27 26 24 26 29 29 29 29 29 29 29 29 29 29 29 29 29 29 28 28 29 29
34 32 31 26 24 24 24 25 30 31 28 28 30 32 33 34 33 30 25 23 23 24 23 23 25 25 28 31 31 31 29 27 28 29 28 27 27 27 28 28 28 27 27 27 27 26 26 26 26 26 26 26 26 26 25 24 24 24 24 24 25 25 26 26 27 26 23 23 27 29 29 29 29 29 29 29 29 29 29 29 29 29 29 28 28 29
33 29 31 30 28 29 30 30 33 33 29 28 29 30 31 33 32 29 25 25 26 24 22 25 27 25 27 32 33 32 31 29 28 28 28 27 27 27 28 28 28 28 27 27 27 27 27 26 26 26 26 26 26 26 25 25 24 24 24 24 24 25 26 26 26 26 23 22 25 28 29 29 29 29 29 29 29 29 30 30 30 29 29 29 29 29
32 28 31 32 29 32 34 33 34 33 32 31 31 30 31 31 30 28 26 29 29 24 23 27 28 26 29 32 32 31 31 31 29 28 27 28 27 28 29 28 28 28 27 27 27 27 27 27 26 26 26 26 26 26 26 25 25 24 24 24 24 24 24 24 25 25 24 24 26 27 27 28 29 29 29 29 29 29 29 30 30 30 29 29 29 29
32 28 32 33 29 30 33 33 34 33 31 31 31 32 32 32 31 30 30 31 31 28 28 30 29 29 31 32 32 32 31 31 30 29 28 28 28 28 29 29 29 28 27 27 27 27 27 27 27 26 26 26 26 26 26 25 25 25 24 24 24 24 23 23 24 24 23 24 25 26 27 27 28 28 29 29 29 29 29 29 30 30 30 29 29 29
31 28 33 33 27 27 31 32 33 32 31 29 30 32 32 32 31 31 31 31 30 28 31 31 28 29 31 31 31 32 31 31 31 30 30 29 28 29 29 29 29 29 28 28 27 27 27 27 27 27 27 26 26 25 25 25 25 25 25 25 24 24 24 23 23 24 23 22 24 25 26 26 27 27 28 28 29 29 29 29 29 30 30 30 29 29
32 30 32 31 24 24 29 31 31 32 31 28 28 30 31 30 30 30 31 31 30 28 29 28 26 28 31 31 31 31 31 31 30 30 30 29 29 29 29 29 29 29 28 28 27 27 27 27 27 27 27 26 26 26 25 25 25 25 25 25 24 24 24 24 24 24 23 23 24 25 25 25 26 27 27 27 28 28 29 29 29 29 29 29 29 29
33 31 29 28 23 23 28 30 29 29 26 24 27 30 31 31 32 31 31 32 33 31 28 26 27 29 31 31 31 31 31 31 29 29 29 29 29 29 29 29 29 28 28 27 27 27 27 27 27 27 27 27 26 26 26 25 25 24 24 24 24 23 23 23 23 22 23 24 25 25 25 25 25 26 26 27 27 27 28 28 28 28 29 29 29 29
33 31 30 29 24 22 27 30 28 25 22 24 30 33 33 33 32 31 31 32 33 33 31 30 31 31 31 31 31 31 31 30 29 28 29 29 28 28 28 28 28 27 27 27 27 27 26 27 27 27 27 26 26 26 25 25 25 24 24 24 23 23 22 22 21 21 22 23 24 25 25 24 24 25 26 26 26 27 27 28 28 28 28 28 28 28
33 31 31 30 26 24 26 27 23 21 23 28 33 34 33 33 33 32 33 33 33 32 32 32 32 32 31 31 31 31 31 30 30 29 29 28 28 28 28 27 27 27 27 26 26 26 26 26 26 26 26 26 26 25 25 25 24 24 24 24 24 23 22 22 22 22 22 23 24 24 24 24 24 24 25 25 26 26 26 27 27 27 27 27 28 28
33 32 30 29 27 25 24 23 22 23 28 32 33 33 33 33 33 31 30 31 33 32 32 32 31 32 32 31 31 31 31 30 30 29 28 28 28 28 28 27 27 27 26 27 26 26 26 26 26 26 26 25 25 25 24 24 24 24 24 24 24 24 23 22 23 23 23 23 23 24 24 24 23 23 23 24 25 26 26 26 26 26 27 27 27 27
34 33 30 27 27 26 23 22 24 25 27 29 31 33 34 33 33 31 28 29 33 33 32 32 31 31 31 31 31 31 30 30 30 28 27 27 28 28 28 28 28 27 27 27 27 26 26 26 26 25 25 25 25 25 24 24 24 24 24 24 24 24 24 23 23 23 23 23 23 23 23 23 23 23 23 23 24 25 25 25 25 26 26 26 26 26
35 33 31 26 26 26 23 22 24 23 23 26 30 33 34 33 34 34 30 28 31 32 32 32 31 31 31 30 30 30 29 29 29 27 26 26 27 28 28 28 29 28 28 28 27 27 26 25 25 25 24 24 24 24 24 23 23 24 24 24 24 24 24 23 23 23 23 23 22 22 22 22 22 22 22 23 23 24 25 25 25 25 26 26 26 26
35 34 33 28 25 25 23 22 23 22 23 28 31 33 34 33 34 34 28 25 29 31 31 31 31 30 29 29 29 30 29 28 28 28 26 26 27 28 28 28 28 28 28 27 27 26 26 25 24 24 24 24 24 23 23 22 23 24 23 23 24 23 23 23 23 23 22 22 22 22 22 22 22 22 22 22 23 23 24 24 24 24 24 25 25 26
34 33 31 27 23 24 23 22 23 24 25 30 32 32 33 34 34 30 23 23 29 31 30 30 30 29 29 28 29 29 28 27 27 28 27 27 27 28 28 27 27 27 27 27 26 26 25 25 24 24 24 23 23 22 21 21 22 24 24 23 23 23 23 23 22 22 22 22 22 21 22 22 21 21 21 22 22 22 22 23 23 23 23 24 24 24
31 31 29 26 24 24 23 22 23 25 28 31 33 33 34 34 31 25 22 25 29 30 29 29 29 29 29 29 29 28 28 27 27 26 27 28 27 27 27 27 27 26 26 26 25 25 25 25 24 24 23 22 21 21 21 20 21 23 24 23 23 23 22 22 21 21 21 21 21 21 21 21 21 21 21 21 21 21 21 22 22 22 23 23 23 23
27 27 27 26 25 24 24 23 23 24 28 31 32 33 33 30 25 24 26 28 30 29 29 29 29 29 29 28 29 28 27 26 27 26 27 28 27 26 27 26 26 26 26 25 25 24 24 25 23 22 21 20 20 21 21 20 21 22 23 23 22 22 22 21 21 21 21 21 21 21 21 21 21 21 20 20 20 20 21 21 21 21 22 22 22 22
28 26 24 26 27 25 24 23 22 23 27 31 31 31 32 29 25 26 28 29 30 30 30 30 29 30 29 28 29 29 27 27 27 27 27 27 26 26 26 25 25 25 25 25 24 24 24 23 21 20 19 20 20 20 20 20 21 22 23 22 22 21 21 21 21 20 21 20 20 20 20 20 20 20 20 19 20 20 20 21 21 21 21 21 21 21
31 27 24 26 29 26 22 22 24 25 29 32 31 30 30 29 28 28 28 29 30 30 30 30 29 29 29 29 29 29 28 27 27 27 27 26 26 25 25 25 25 25 25 25 24 23 23 22 20 20 19 19 20 19 19 20 21 22 22 21 21 21 21 20 20 19 19 19 19 20 20 19 19 19 19 19 19 20 20 20 20 20 20 20 21 21
29 29 26 28 30 29 26 26 28 29 30 32 32 31 30 29 29 29 29 30 30 30 30 30 29 28 29 29 28 28 29 28 27 26 26 26 26 25 25 25 25 24 24 24 23 22 22 21 20 20 19 19 19 19 19 20 21 21 21 20 20 20 20 19 19 18 18 17 18 19 19 19 19 19 19 19 19 20 20 20 20 20 20 20 20 21
30 30 29 30 30 30 30 30 29 29 30 32 33 32 30 29 29 30 30 30 30 30 30 30 29 29 29 29 28 28 29 28 26 26 25 25 25 25 24 24 24 24 24 23 23 22 22 20 19 19 20 19 19 18 19 19 20 21 20 20 20 19 19 19 18 18 17 17 17 17 17 18 18 19 19 19 19 20 20 20 19 19 20 20 20 20
31 31 31 31 29 28 28 29 30 30 30 31 32 30 28 29 30 30 30 30 29 29 30 29 29 29 29 28 28 28 28 27 26 25 25 25 25 24 24 24 23 23 23 23 22 22 21 21 20 19 20 19 18 18 19 19 20 20 20 20 20 19 19 18 18 17 17 16 16 16 16 16 16 17 18 18 19 19 19 19 20 20 20 20 19 19
30 31 31 31 30 28 28 29 31 30 29 30 30 28 27 28 29 30 30 30 29 29 29 29 28 29 28 28 27 27 27 26 26 25 25 25 24 24 24 23 23 23 23 22 22 21 21 21 20 20 20 19 18 18 18 19 19 20 20 20 20 19 19 18 18 18 17 16 16 15 15 15 15 15 16 17 18 18 18 18 19 19 19 19 19 19
29 30 30 29 30 30 29 29 30 29 29 29 29 28 27 27 28 29 29 29 29 29 28 28 28 28 28 27 26 26 26 25 25 25 25 24 24 24 23 22 22 23 22 22 21 21 20 20 20 20 19 18 17 17 17 17 18 19 19 19 19 19 19 18 18 18 17 17 16 15 15 14 14 14 15 15 16 16 16 17 17 18 18 19 19 19
28 29 29 29 28 28 28 28 28 28 28 29 29 29 28 27 27 28 28 28 29 29 28 27 28 28 28 27 27 26 25 24 25 25 24 24 24 23 22 22 22 22 22 22 21 21 20 20 20 19 19 18 17 17 17 17 18 18 19 19 19 19 19 19 18 18 18 17 17 16 16 15 14 14 14 14 15 15 15 15 16 17 18 18 18 19
27 27 29 28 26 26 27 28 27 27 27 28 29 29 29 28 28 27 28 28 28 28 28 27 27 27 27 27 27 26 25 24 25 25 24 24 24 23 22 21 21 22 22 22 21 21 20 20 20 19 19 18 17 17 17 18 18 18 18 19 19 19 19 19 18 18 18 18 17 17 17 16 15 15 14 14 14 15 14 14 15 16 17 17 18 18
Height
735 750 754 752 748 738 733 729 730 729 727 731 735 740 745 749 748 744 744 741 738 751 755 745 743 745 751 752 749 749 746 747 747 744 743 742 742 750 757 754 754 757 755 754 756 758 760 761 764 766 768 769 771 773 775 777 779 780 782 783 784 786 787 789 792 793 795 796 798 800 802 804 805 807 808 809 811 811 812 812 813 817 821 824 826 828
735 756 752 738 733 726 723 722 723 727 729 733 737 742 744 744 743 737 739 737 734 749 753 741 741 745 748 749 745 746 747 748 746 746 748 744 744 755 759 754 755 757 754 755 757 758 760 762 764 767 768 769 771 772 775 777 779 781 782 784 786 787 788 789 790 792 793 795 797 799 801 803 805 806 807 809 811 813 815 816 816 819 822 825 827 828
748 753 739 723 720 721 724 725 727 731 733 736 737 743 747 742 738 735 734 734 736 747 749 742 744 746 745 747 746 746 747 749 747 748 750 747 748 757 759 756 758 758 756 756 757 758 760 762 764 767 767 769 770 772 775 776 779 780 782 784 786 786 788 789 790 790 792 794 797 799 801 803 805 806 807 809 811 814 816 818 818 820 823 825 827 829
754 742 726 718 719 727 733 730 732 736 736 738 739 743 745 736 737 744 741 737 735 739 742 742 746 748 748 750 748 747 747 747 747 747 749 748 748 753 755 756 758 759 759 758 758 758 760 762 764 766 767 769 771 772 774 776 778 780 782 784 785 786 788 788 789 790 792 794 797 799 801 802 803 805 807 810 812 814 816 819 821 821 823 825 827 830
744 727 718 722 726 731 737 734 734 740 740 735 733 738 739 731 731 736 736 737 735 734 736 743 754 755 751 756 754 748 745 745 748 748 749 751 750 751 753 755 758 757 757 757 759 759 760 763 764 766 768 771 773 773 773 775 777 779 781 783 784 786 787 787 789 791 792 794 796 799 800 801 802 804 807 809 811 813 815 818 821 822 823 825 827 829
734 721 717 727 730 729 736 737 732 737 742 735 726 725 727 725 725 723 725 736 744 748 741 744 770 770 750 755 760 751 747 748 749 749 752 755 754 754 756 757 759 758 755 755 758 760 761 764 765 767 769 771 774 773 772 774 776 778 781 782 784 785 786 787 788 790 792 794 796 798 799 800 802 804 806 807 809 811 814 816 819 822 823 824 825 827
729 721 721 730 732 730 735 735 727 728 740 741 724 713 716 720 724 724 725 737 748 755 746 742 770 777 757 759 761 753 753 752 751 753 755 758 757 757 759 761 763 761 758 758 759 760 762 764 766 768 770 772 776 774 771 773 775 777 780 782 784 785 786 786 788 790 792 794 796 797 798 800 802 803 805 806 808 810 813 814 817 819 821 823 824 825
725 724 727 730 732 733 734 732 722 721 736 739 721 715 720 723 727 728 729 737 741 747 751 748 761 773 771 770 760 753 759 757 755 758 758 760 760 760 762 763 763 762 760 760 762 762 762 764 766 769 771 774 778 775 770 772 774 776 780 781 784 785 785 786 788 790 791 793 795 797 799 800 802 804 805 806 808 810 812 814 815 817 819 821 822 824
720 726 729 729 734 734 730 724 715 718 733 729 717 719 723 723 727 726 728 737 735 748 768 762 757 772 780 770 757 757 764 762 761 762 762 762 762 762 764 764 761 759 758 759 761 762 762 763 766 770 771 773 777 775 771 772 774 776 779 782 784 785 786 787 788 789 791 793 795 796 798 799 801 804 805 806 807 809 811 813 814 816 817 819 821 822
721 723 721 725 734 731 723 716 710 718 728 721 717 722 721 722 724 726 733 738 741 759 774 762 753 772 783 770 761 766 768 766 762 761 763 763 762 763 764 763 761 758 758 759 760 761 762 763 766 770 770 771 776 775 771 773 774 776 779 782 784 785 787 788 788 790 791 792 794 796 797 798 801 802 804 805 807 808 810 811 813 814 815 817 819 820
718 715 715 722 728 724 719 716 712 716 720 718 722 725 726 727 726 730 732 736 757 773 767 755 747 760 779 772 760 764 766 765 764 762 764 763 762 764 763 762 759 758 759 760 760 761 763 764 765 769 769 770 776 776 772 774 774 775 779 781 784 785 787 788 789 790 791 792 794 794 796 797 799 801 802 804 805 807 809 810 811 813 814 815 817 819
719 721 722 719 717 717 722 722 717 715 716 722 729 732 740 743 738 742 745 752 778 782 761 752 746 752 774 771 757 759 761 762 767 768 764 762 762 762 762 761 757 757 760 760 760 760 761 763 764 766 768 770 776 775 774 775 774 775 779 781 783 785 787 788 790 791 792 793 794 794 795 796 798 800 801 802 804 806 807 809 810 811 812 814 815 817
726 723 721 716 713 715 726 731 727 722 720 726 732 738 755 765 764 770 776 778 783 772 752 748 751 756 765 761 756 760 760 756 760 761 758 757 759 760 760 760 756 756 759 759 759 759 759 761 762 763 767 769 772 773 774 777 776 776 779 782 784 785 787 788 789 791 792 793 794 794 795 795 797 798 800 802 803 805 806 807 809 810 811 812 813 815
737 726 718 719 717 714 724 736 740 735 728 731 732 741 760 773 783 788 782 778 775 764 747 741 751 762 764 761 758 757 757 754 752 753 752 751 754 756 755 756 755 755 757 758 757 758 758 759 760 761 765 767 768 771 773 776 779 780 780 782 784 785 787 789 790 791 792 792 793 794 795 795 796 797 799 801 802 804 805 806 807 809 809 811 812 813
749 748 731 727 727 720 721 726 731 730 729 727 720 731 748 753 768 778 771 774 773 760 747 743 754 765 771 773 761 751 751 750 749 749 749 750 750 751 752 753 755 755 757 757 756 756 756 757 759 760 763 765 766 769 772 774 778 780 781 783 785 786 787 789 790 791 792 792 793 794 795 795 796 797 798 800 801 803 804 805 806 807 808 809 810 811
750 751 727 721 724 721 721 714 713 726 736 726 710 724 739 734 743 753 749 752 755 754 751 749 754 756 761 764 752 749 750 747 750 750 750 754 752 752 754 753 755 756 758 760 758 757 757 757 759 760 761 764 765 768 771 773 774 776 782 784 784 786 788 788 790 791 791 792 793 794 795 795 796 797 797 799 800 801 802 803 804 805 807 808 809 810
752 750 725 720 723 717 719 715 709 724 738 731 724 733 729 718 729 746 748 740 745 763 759 746 750 750 756 765 754 751 756 754 756 754 751 756 754 755 758 754 754 755 757 760 758 758 758 757 759 760 761 763 764 767 770 772 772 773 779 785 785 785 787 788 789 790 791 792 792 793 794 795 795 796 797 797 798 800 801 802 802 804 805 806 807 809
746 752 731 726 732 717 710 717 714 713 722 735 740 733 721 721 727 741 758 757 760 776 762 743 749 751 765 782 766 754 761 762 759 755 754 756 755 757 758 754 755 754 754 757 756 756 757 756 758 759 760 762 764 766 768 770 772 772 775 781 785 785 785 787 788 788 790 790 791 792 792 793 794 795 796 796 797 798 799 800 801 802 803 804 806 807
736 754 740 724 731 721 709 723 731 719 712 725 730 719 725 747 749 746 761 771 775 782 770 752 749 752 770 783 771 762 763 762 760 758 756 757 756 757 756 754 754 753 754 755 755 755 755 754 756 757 759 761 764 766 767 769 771 772 772 776 782 785 784 785 786 787 788 789 789 790 791 792 793 794 795 795 796 796 797 798 799 800 802 802 804 805
727 753 753 728 722 723 721 731 743 736 721 719 724 720 723 736 744 748 754 760 768 777 775 763 759 767 775 770 764 764 759 757 761 760 758 758 758 757 756 755 754 753 754 754 753 754 753 754 755 756 758 761 763 766 766 767 769 771 771 771 776 781 782 784 785 785 787 788 788 788 789 791 791 792 793 793 794 795 795 797 798 798 800 801 802 803
726 747 757 740 725 730 737 736 739 742 736 734 739 739 735 731 735 746 747 744 752 766 773 772 775 782 774 759 759 761 755 755 759 759 760 758 758 759 757 755 754 753 753 753 752 751 751 753 754 755 758 760 763 765 766 766 767 769 771 771 773 777 780 782 783 784 785 786 786 787 787 789 789 791 792 792 793 794 794 795 796 797 798 799 801 802
730 742 751 750 742 743 743 730 727 733 734 737 742 741 741 739 742 759 764 749 743 754 763 769 784 789 770 756 757 757 755 754 753 755 757 755 757 760 757 755 754 753 752 752 751 749 748 751 752 754 757 758 761 763 763 765 766 767 769 770 772 774 777 779 780 782 784 784 785 785 786 787 788 789 790 791 792 792 793 794 795 796 797 798 799 800
723 736 748 752 747 741 733 721 723 727 725 731 736 733 733 735 740 762 774 760 749 752 750 754 776 784 765 752 755 754 752 752 751 752 753 754 757 757 756 754 753 753 752 750 750 748 747 748 750 752 754 757 759 760 761 762 764 765 767 768 770 771 773 777 778 779 781 782 783 784 785 786 786 787 788 789 790 791 792 793 794 795 796 796 798 799
725 738 752 756 748 737 726 719 720 722 726 735 735 728 731 736 738 746 752 751 755 757 752 758 778 782 763 749 751 753 750 749 752 752 753 756 756 754 755 754 753 754 753 751 751 749 748 748 749 751 753 755 757 759 760 761 762 764 766 767 768 769 772 775 776 778 780 781 782 782 783 784 784 785 786 787 788 789 790 791 792 794 795 795 796 797
736 747 756 766 771 764 753 747 742 735 735 739 735 730 731 734 737 740 739 747 759 757 752 764 779 776 759 747 748 751 751 751 753 753 755 757 756 756 755 753 753 754 753 753 753 752 751 750 750 751 752 754 756 757 759 760 761 763 765 767 767 768 770 773 775 779 781 780 780 780 781 782 783 784 784 785 786 787 789 790 791 792 794 795 795 796
737 747 753 769 784 785 780 772 762 752 745 740 736 735 734 733 738 744 749 759 768 760 755 766 773 764 753 748 747 749 753 757 755 753 756 757 757 758 756 754 754 754 753 753 753 754 754 753 752 751 752 753 755 757 758 759 760 762 764 766 766 767 769 771 774 778 782 781 779 779 779 780 780 781 782 784 784 785 787 788 789 791 792 794 795 795
732 741 744 757 768 768 767 760 748 745 749 746 740 738 737 735 737 745 756 764 765 763 764 766 764 760 754 749 746 745 752 759 756 752 755 756 756 757 755 754 753 753 754 753 752 753 753 753 752 752 752 753 755 756 757 758 759 761 763 765 766 767 768 770 772 776 783 785 780 777 777 777 778 779 780 782 783 784 785 786 787 789 791 793 794 795
736 745 741 746 751 747 747 744 736 737 743 744 742 741 741 740 741 750 759 757 756 767 773 761 756 762 758 747 743 743 747 753 754 754 755 755 755 754 752 753 753 753 753 752 752 752 752 753 753 751 753 754 754 756 757 758 759 760 762 763 765 767 768 769 770 773 781 785 779 776 776 776 777 777 778 780 781 782 783 784 785 787 788 791 792 793
739 749 740 740 745 740 736 736 733 736 741 741 743 744 742 742 746 752 756 750 750 764 768 755 752 760 753 743 743 743 743 747 751 754 753 751 752 751 750 752 753 753 753 752 752 752 751 752 751 751 752 753 754 755 755 757 758 759 761 763 763 765 766 767 766 768 775 780 777 775 775 775 775 776 777 778 779 780 781 782 784 785 786 788 790 792
735 747 738 738 745 742 739 737 733 736 741 741 741 740 738 739 740 743 747 746 746 752 751 746 750 752 745 742 742 740 740 742 744 747 748 748 750 750 750 751 750 751 752 752 752 751 750 750 750 750 751 752 753 754 754 755 757 758 760 761 762 764 766 766 765 765 771 776 776 774 773 774 774 775 775 776 777 779 780 781 782 783 785 786 788 790
732 745 739 739 750 749 741 739 737 738 743 744 743 741 740 740 741 742 744 744 747 750 746 745 754 752 742 739 739 737 738 740 742 744 746 748 749 748 750 750 748 749 751 750 750 750 749 749 749 749 750 751 752 752 753 754 755 756 758 759 760 762 765 767 767 767 770 775 776 773 771 772 773 773 774 774 776 777 778 780 781 782 783 785 786 788
734 745 741 744 760 759 744 742 742 738 740 745 746 744 744 745 746 745 744 743 746 752 753 754 758 754 742 738 740 739 737 740 743 745 746 747 747 747 749 749 747 748 749 749 749 749 749 749 748 748 749 750 751 752 753 754 754 755 756 757 759 761 763 766 767 768 769 771 772 770 770 771 771 771 772 773 774 775 776 778 780 781 782 783 785 787
733 744 743 749 767 766 748 744 743 742 753 759 747 738 739 739 739 741 741 738 736 742 752 756 753 747 742 740 742 741 739 742 746 747 747 748 747 747 748 747 747 748 748 748 749 749 749 748 748 748 748 749 751 751 752 753 753 754 755 757 758 760 762 764 765 767 767 766 766 766 767 769 769 769 771 771 773 774 774 776 778 779 781 782 783 785
731 739 742 746 762 765 748 739 745 760 774 764 737 727 731 733 735 740 740 735 731 731 738 742 740 738 740 740 742 742 741 742 745 745 744 745 747 747 747 746 747 747 746 748 748 748 748 748 748 748 748 749 751 751 751 752 753 753 754 756 758 758 759 762 764 766 765 763 762 762 764 766 766 768 769 769 771 772 772 774 776 777 779 780 782 783
734 738 741 742 750 755 745 747 768 781 770 745 727 724 725 725 728 733 734 732 731 732 734 737 738 737 737 738 738 738 738 738 740 742 742 743 744 745 747 747 746 746 747 747 747 748 748 748 748 749 748 749 750 750 751 752 752 752 753 754 756 757 757 759 760 760 759 758 757 758 759 761 762 764 765 766 768 769 770 772 773 774 777 778 780 781
729 737 740 741 746 751 752 762 779 774 747 730 728 725 721 724 731 737 742 738 731 730 734 737 737 734 734 737 736 735 736 737 738 740 741 741 742 743 745 746 745 745 746 745 745 746 747 747 748 748 748 749 749 749 750 750 751 751 752 752 754 755 755 756 754 753 753 752 751 753 754 755 756 757 759 761 763 765 767 769 770 771 773 775 777 779
717 730 738 743 746 751 758 760 758 754 747 740 736 727 722 728 732 736 744 741 726 724 730 733 737 736 735 736 736 734 736 738 742 744 742 741 742 742 743 742 741 742 742 741 743 744 746 747 747 747 747 748 748 749 749 749 750 750 749 750 751 751 752 750 749 748 748 748 748 749 750 751 752 753 755 756 758 760 762 764 766 768 769 771 773 775
708 720 734 747 748 746 756 761 758 763 765 751 736 726 718 720 719 720 735 743 731 725 728 731 736 739 737 738 738 737 740 747 752 751 746 743 742 741 741 740 738 739 739 740 742 743 744 746 746 746 747 747 747 748 747 748 748 748 748 748 748 748 748 746 745 745 744 745 746 747 748 750 751 752 754 754 754 756 757 759 762 764 765 767 769 771
706 713 724 742 750 746 754 765 765 766 762 744 732 723 715 714 713 718 742 754 738 728 730 732 736 739 741 744 743 741 748 756 756 750 745 744 742 739 741 740 739 739 740 741 742 743 744 745 745 745 746 746 746 747 747 748 747 746 746 746 746 746 745 743 743 742 742 742 743 745 746 747 748 750 752 753 752 753 754 756 758 760 762 764 766 769
712 717 726 741 749 747 752 759 754 751 749 737 727 722 716 711 713 735 766 766 740 729 733 734 738 740 739 743 744 744 750 755 753 746 741 740 740 738 739 741 741 741 742 742 743 744 744 744 744 744 744 745 746 746 747 749 748 746 745 745 744 743 742 741 741 740 740 741 741 742 743 744 745 747 749 751 752 752 754 756 756 758 761 763 764 766
716 721 729 739 744 743 750 756 749 744 741 730 721 718 714 715 730 756 772 758 736 733 735 734 738 739 737 741 744 744 746 745 744 742 738 737 739 739 739 741 742 742 743 743 743 744 744 744 743 744 745 745 746 746 746 748 747 746 745 744 743 742 741 740 740 738 738 739 739 740 741 741 742 744 746 750 753 753 755 755 756 757 759 761 763 764
725 728 731 735 740 741 744 750 752 749 737 724 720 717 714 730 754 760 751 738 733 735 734 734 737 736 736 740 740 740 742 740 738 740 738 737 740 740 740 741 742 742 743 743 744 744 744 743 744 746 748 748 748 747 747 746 745 744 743 743 743 742 741 740 739 738 738 738 737 738 738 738 740 742 744 747 750 751 752 753 754 756 758 760 763 765
725 733 735 732 733 739 744 750 760 762 741 722 725 727 723 737 751 746 736 733 731 730 731 733 733 732 734 738 736 735 738 739 738 738 737 738 740 741 742 743 743 743 743 743 744 744 744 744 746 747 748 749 750 750 749 748 746 743 742 743 742 742 741 740 739 738 737 737 736 736 737 737 739 740 742 745 747 749 750 751 753 755 757 760 764 766
719 727 736 730 725 735 749 753 755 751 732 718 726 734 730 731 733 731 734 735 730 728 729 730 730 731 732 735 735 734 736 738 739 739 738 740 741 741 742 743 743 744 744 744 745 745 745 746 746 746 747 748 750 751 751 750 748 744 743 743 742 742 742 740 739 738 737 736 736 735 736 737 738 738 739 742 745 747 748 749 751 754 757 760 763 765
720 721 728 729 724 726 735 738 735 730 723 717 719 723 724 725 725 726 730 730 728 729 728 728 730 730 729 732 735 735 734 736 738 739 740 741 741 741 743 743 743 744 745 745 746 746 746 747 747 747 748 748 749 751 752 751 748 745 744 744 742 742 742 742 741 740 738 737 736 736 736 737 737 737 737 739 742 744 744 746 749 752 756 758 760 762
715 712 718 724 725 721 721 723 723 723 722 717 713 715 720 723 724 724 726 727 728 728 727 728 730 728 728 731 734 734 734 734 737 740 740 740 741 741 743 744 744 745 745 745 746 747 747 747 748 748 749 748 750 752 753 751 748 745 745 744 743 743 744 743 743 742 740 740 739 738 738 737 737 737 736 738 741 743 743 745 749 751 753 756 759 761
711 709 714 721 728 732 730 725 720 721 722 718 716 719 723 724 723 723 724 726 727 727 727 728 729 729 730 731 732 734 734 734 737 741 741 740 742 742 743 745 746 746 746 746 747 748 748 748 749 749 749 750 752 753 753 751 748 746 745 745 745 745 746 745 744 743 742 742 741 741 740 739 738 737 736 736 739 743 745 746 749 750 752 754 758 761
717 713 716 720 725 731 732 725 718 719 721 718 719 725 729 729 725 722 722 725 726 727 728 728 729 730 730 730 732 735 735 735 738 740 741 742 743 743 744 746 746 746 747 747 748 748 748 748 750 750 749 751 753 753 751 750 748 747 746 746 747 747 747 747 746 745 744 744 744 744 744 743 742 739 737 736 738 742 745 746 747 749 751 754 758 760
721 718 721 723 724 726 727 724 721 723 724 721 720 725 728 730 729 726 726 726 726 727 729 729 729 729 728 731 733 734 737 739 738 739 741 742 743 744 745 747 747 747 748 748 748 749 748 749 751 751 750 752 753 753 751 750 750 748 747 748 749 749 749 749 747 747 747 746 747 747 747 746 745 743 741 740 740 743 746 746 746 747 751 754 758 761
727 726 722 724 730 732 731 728 726 730 733 727 722 722 723 725 727 728 729 728 727 727 729 731 731 729 728 730 732 734 738 740 738 739 741 742 743 745 746 747 748 748 748 749 749 749 749 750 752 751 751 751 752 752 751 750 749 750 750 750 750 750 750 750 749 749 749 748 749 749 749 748 747 746 745 744 744 745 748 748 748 749 752 755 759 761
730 728 723 727 734 734 729 724 723 729 732 726 720 720 720 720 724 728 729 729 728 726 726 730 733 732 731 731 731 733 737 738 738 739 740 742 744 745 746 747 748 748 748 749 749 750 751 752 752 752 752 751 750 752 753 749 747 750 752 752 752 751 751 751 751 751 751 750 751 751 750 750 750 749 749 749 749 749 750 752 753 754 756 758 760 763
Wind_Speed
7 7 7 7 8 9 11 12 12 13 14 12 9 5 4 7 6 9 10 9 8 5 6 9 9 2 11 11 7 4 4 4 6 8 6 7 7 5 6 6 6 8 8 11 12 11 10 8 11 13 11 12 13 12 14 14 14 15 16 19 21 19 18 19 18 17 17 18 19 19 16 17 21 21 19 18 16 15 15 16 16 15 15 16 13 9
6 7 8 10 13 11 8 7 9 10 11 10 9 6 5 7 3 7 10 9 8 3 6 9 10 2 11 10 7 4 1 3 5 7 8 9 4 8 8 8 6 6 7 11 10 10 11 8 8 12 11 12 13 13 15 15 15 15 17 20 23 21 20 20 18 17 17 17 19 18 17 19 21 21 18 18 19 17 21 23 19 18 18 17 14 10
6 9 10 10 8 6 8 8 10 11 11 9 7 6 6 6 3 6 11 10 8 3 5 7 8 2 10 9 6 5 3 4 5 5 6 9 1 11 10 7 6 7 7 10 10 10 12 9 7 9 10 12 14 15 16 16 16 16 16 19 21 21 20 19 19 19 18 17 19 19 18 19 18 20 18 17 17 17 22 25 20 18 17 16 15 14
7 7 4 3 3 4 8 9 10 11 9 8 7 7 7 8 7 3 8 9 8 7 5 4 6 1 8 8 5 6 4 3 3 3 4 5 1 9 13 10 8 9 9 10 11 10 10 7 5 6 7 10 13 14 15 16 16 16 16 18 19 19 18 19 20 20 20 19 21 22 21 19 17 18 17 14 15 18 21 23 21 20 17 16 17 17
10 2 3 3 3 5 9 10 10 8 7 9 9 9 7 8 10 6 8 11 9 9 6 3 5 2 4 5 4 4 2 3 4 3 3 3 1 5 10 9 6 8 10 11 10 9 7 5 3 5 5 5 9 13 15 17 16 16 17 19 19 18 18 20 21 21 23 23 22 22 19 17 17 16 15 14 17 20 21 23 24 22 20 18 18 19
6 4 3 5 6 7 9 9 9 7 7 9 10 12 9 8 12 10 5 8 5 5 7 4 5 2 3 4 4 1 2 5 4 3 4 3 2 4 7 7 4 5 8 9 9 8 6 5 4 6 5 4 11 14 15 17 17 16 18 19 20 19 19 21 23 23 25 25 23 22 19 17 16 14 16 18 19 20 21 23 22 22 22 20 19 20
3 3 3 7 8 9 10 9 8 7 7 5 2 6 7 7 9 9 5 5 6 2 4 1 5 3 0 4 5 2 3 5 5 5 5 3 3 5 5 5 5 5 6 8 8 6 5 6 6 6 5 5 14 15 14 16 16 17 18 19 20 20 20 21 23 25 26 25 23 21 21 20 17 15 18 21 21 22 22 21 18 19 21 19 17 18
4 5 2 6 10 9 8 6 6 5 8 2 6 6 5 7 8 8 8 7 4 3 4 3 5 6 2 3 3 2 3 3 5 6 4 5 4 4 5 3 5 6 7 7 6 6 4 4 5 4 4 7 18 16 13 14 15 18 19 19 19 20 21 21 23 25 26 24 22 20 19 19 18 16 20 23 21 20 21 20 19 19 19 18 16 16
4 6 1 5 11 7 4 2 6 4 7 4 7 7 6 8 9 9 9 6 3 2 1 2 6 7 1 2 1 2 2 2 6 7 5 6 7 5 4 1 3 7 8 6 5 6 4 3 3 4 6 10 21 19 13 14 15 17 19 20 20 21 20 21 24 25 25 23 21 20 19 19 19 17 19 21 19 19 20 19 19 19 19 18 16 15
2 5 7 5 8 5 4 5 2 4 6 8 8 7 7 8 9 7 7 5 4 4 4 5 7 5 2 3 1 2 1 2 5 7 5 6 7 7 4 3 3 6 7 5 4 4 3 3 4 5 6 10 20 17 11 15 18 18 18 20 21 21 21 21 24 24 23 25 22 19 19 20 19 17 18 19 19 20 19 18 18 18 19 18 16 16
1 1 6 6 7 7 7 7 5 2 6 8 7 8 6 6 6 6 6 4 4 4 5 7 7 5 2 2 3 2 4 5 4 5 7 8 7 5 3 3 4 6 6 4 4 4 4 5 6 7 4 10 22 15 10 13 18 19 18 19 20 20 21 22 23 23 23 25 24 20 20 21 18 18 19 19 19 20 19 18 18 17 17 18 17 16
7 5 4 5 5 6 8 7 3 3 6 6 6 7 4 4 5 5 3 3 5 4 3 6 7 5 4 1 4 6 10 10 8 2 6 11 9 7 5 4 5 6 6 6 6 6 6 5 6 8 8 15 22 13 12 13 13 19 17 18 20 19 21 22 22 23 23 23 22 21 23 22 19 19 20 18 18 18 18 17 17 17 17 17 17 17
8 5 6 7 6 4 9 5 3 5 5 5 6 5 4 3 4 4 1 2 5 4 1 3 5 4 2 5 9 10 7 7 7 3 6 10 10 9 8 7 5 5 5 7 6 7 7 5 7 9 12 18 16 3 7 8 7 14 17 17 19 20 20 22 22 22 22 22 21 22 23 22 20 20 20 18 18 17 17 17 16 17 17 17 18 18
6 4 4 5 6 5 6 6 3 3 4 5 5 2 3 4 4 5 3 3 4 3 4 5 2 2 3 8 9 9 6 7 7 5 3 8 10 10 10 9 7 6 7 7 7 8 9 8 10 13 14 15 10 3 7 7 4 5 15 17 16 19 20 20 21 22 21 21 21 21 22 21 20 21 20 18 18 17 17 16 16 16 16 16 17 18
4 4 3 3 3 4 6 6 3 7 4 5 3 2 5 5 4 4 2 3 4 3 5 5 2 2 4 7 7 9 9 8 7 5 4 4 7 8 9 10 8 8 7 6 7 8 9 10 11 13 12 9 10 7 8 12 7 5 8 16 16 16 20 20 20 21 20 20 20 20 20 20 20 20 20 19 17 17 17 16 16 16 16 15 15 16
6 2 4 4 2 4 8 2 1 6 6 5 4 6 3 4 3 5 3 3 5 5 3 3 2 5 9 10 10 8 6 7 7 5 5 3 5 5 5 8 8 8 6 4 6 6 7 9 10 11 11 8 9 10 9 13 15 5 4 9 16 16 17 19 20 20 20 19 19 20 19 19 19 18 18 19 18 17 17 16 16 16 15 16 15 15
4 2 4 3 5 7 8 6 3 6 4 5 4 2 5 7 5 6 4 3 4 5 2 1 2 7 11 8 8 7 5 8 6 3 5 4 6 6 4 6 6 7 8 7 7 7 7 9 11 11 11 10 10 12 11 12 16 12 6 10 13 18 17 18 20 20 19 19 18 19 19 18 19 18 17 18 18 18 18 17 16 15 15 16 16 15
4 2 4 3 8 6 2 8 9 6 5 5 5 5 7 7 4 4 4 3 3 4 2 1 2 4 8 4 4 7 5 6 5 2 5 5 5 6 5 6 5 5 7 7 6 8 8 9 10 11 11 11 11 13 15 14 15 17 13 10 12 16 19 18 19 20 19 19 19 18 19 18 18 18 17 17 18 18 18 17 16 16 16 16 16 16
2 4 4 3 7 3 5 5 7 6 6 6 7 7 4 4 2 1 3 3 3 4 2 1 2 3 8 5 4 5 4 6 6 2 3 4 3 3 4 6 7 6 7 7 6 6 7 8 9 10 9 10 12 13 15 17 14 15 17 12 13 16 18 19 19 20 20 20 19 18 19 19 19 18 18 18 18 18 17 17 16 16 17 17 17 17
2 4 1 2 5 0 4 5 4 3 6 3 6 7 5 3 2 2 3 4 3 4 3 2 2 4 8 6 6 6 4 6 7 3 2 3 3 3 2 3 4 5 5 5 6 6 6 7 8 9 8 9 12 13 14 16 15 15 18 18 14 18 18 19 18 19 20 20 19 19 20 20 19 19 18 18 18 17 16 17 17 17 17 17 16 17
2 2 1 2 5 4 2 3 2 2 3 3 4 4 5 4 2 3 4 4 5 5 4 5 2 5 6 5 7 6 3 5 6 5 2 1 3 3 2 2 2 3 4 4 5 6 8 8 8 8 8 9 11 13 15 15 16 18 19 20 17 18 19 20 20 19 20 20 19 20 21 21 20 19 18 17 17 17 16 16 17 17 17 18 17 17
1 2 3 3 4 4 1 0 3 6 7 7 5 4 4 4 3 4 5 3 5 5 4 5 2 5 5 3 5 4 3 5 5 4 2 1 3 3 2 3 3 2 3 4 4 5 7 9 9 10 10 11 12 12 15 16 17 18 19 20 20 17 17 19 21 20 20 20 19 19 20 21 21 20 19 18 17 17 17 17 17 17 16 17 17 17
4 3 4 3 3 5 1 4 0 5 8 9 7 6 6 5 3 4 4 4 5 5 5 5 2 4 4 4 7 5 3 4 3 2 2 2 1 3 3 4 4 3 2 2 1 1 4 7 9 10 9 10 10 11 13 16 18 18 18 20 20 17 17 19 21 21 21 20 19 19 20 20 20 20 19 19 18 17 17 16 17 16 16 17 17 18
3 4 5 3 3 7 5 1 1 3 5 7 7 6 5 5 5 5 5 5 5 6 6 5 2 3 5 4 7 7 4 4 4 2 2 1 1 1 3 3 3 4 3 3 3 2 2 5 7 8 9 8 9 10 12 16 19 18 16 18 18 17 17 19 16 17 21 22 20 19 20 20 20 20 20 19 19 18 18 17 16 17 17 17 17 18
1 2 2 4 3 4 5 3 2 3 3 5 3 2 3 4 7 7 5 5 5 6 7 5 2 4 6 6 8 10 8 7 6 5 3 1 1 1 1 2 2 3 3 4 4 1 1 3 4 5 8 8 9 10 11 15 19 20 18 18 18 20 21 19 14 12 16 21 22 20 20 21 20 20 21 20 19 19 19 18 16 17 18 18 16 16
1 2 1 4 4 3 3 2 2 2 4 5 1 2 5 5 6 6 4 4 4 5 6 5 3 4 7 9 9 11 9 6 4 6 7 3 3 3 2 2 2 2 2 3 4 4 2 2 4 4 6 7 9 10 10 13 17 20 21 19 18 21 22 20 16 12 15 18 21 21 21 21 21 21 21 21 20 20 19 19 17 16 17 18 16 15
3 3 3 4 5 5 4 4 5 5 6 7 3 3 6 4 4 5 4 4 4 5 3 2 5 4 2 5 4 7 10 9 6 5 7 5 4 4 3 2 2 2 2 2 2 4 3 2 3 5 5 6 8 9 9 10 13 15 19 19 19 20 22 21 18 13 17 23 21 21 21 21 21 21 21 21 21 20 19 19 19 19 18 18 18 17
3 6 5 6 8 9 8 7 8 6 6 8 7 5 6 5 5 6 7 5 5 4 3 4 6 6 4 2 2 3 7 8 7 5 3 2 2 3 3 3 3 3 3 2 2 2 3 2 2 3 4 6 8 9 9 8 9 11 14 17 18 19 20 20 19 17 21 27 22 18 20 21 20 20 21 21 21 21 20 19 20 21 20 19 19 19
4 7 6 7 9 9 9 9 7 5 6 8 7 6 6 5 5 4 5 8 6 4 6 4 3 5 4 3 4 6 5 4 7 8 6 5 4 3 3 4 4 3 3 2 2 1 2 3 2 2 4 6 7 8 9 9 8 9 10 12 16 17 16 17 20 21 24 26 23 19 18 19 19 19 19 20 21 21 21 20 19 20 20 20 20 20
5 6 6 7 7 7 9 10 9 7 8 9 8 8 8 6 5 4 3 7 8 7 7 7 5 5 3 5 6 5 4 3 3 5 7 5 5 3 3 4 4 4 3 2 2 2 2 2 3 3 3 5 6 7 9 9 8 9 9 10 13 16 17 19 23 24 21 22 23 22 19 19 18 18 16 17 19 20 20 20 19 19 20 20 20 20
4 2 3 5 7 7 7 10 10 9 9 9 8 9 10 9 9 8 6 5 7 8 8 7 7 5 2 5 5 3 2 0 2 3 2 2 4 4 4 5 3 2 3 2 2 2 1 1 2 3 3 4 5 6 7 8 8 9 11 12 14 16 17 20 23 23 22 23 25 22 20 20 19 18 16 16 16 18 20 21 20 19 19 20 20 19
4 2 3 5 6 6 6 8 10 9 10 12 10 9 10 9 8 7 7 6 5 6 7 7 6 3 4 5 4 3 2 2 1 1 1 1 1 1 2 4 4 1 2 2 2 2 2 2 2 2 3 3 4 5 6 7 7 8 10 12 13 14 14 16 17 18 20 24 24 19 17 17 17 18 19 18 16 16 18 21 21 21 18 17 19 20
5 5 5 4 4 5 6 7 8 8 8 9 7 7 9 9 8 7 8 9 8 5 5 6 3 2 2 2 2 3 3 2 4 4 2 2 3 3 3 5 5 2 1 1 2 2 3 3 3 3 3 3 3 4 5 6 6 7 8 9 9 9 11 14 15 15 17 19 20 19 17 15 15 18 22 21 17 15 15 18 21 22 19 16 16 17
7 7 5 4 4 6 7 6 5 6 6 3 2 5 7 8 8 9 8 7 5 3 2 4 2 1 2 2 3 4 3 3 5 3 1 1 1 3 3 3 3 2 2 2 2 2 3 3 4 4 3 2 3 5 5 6 7 7 7 8 10 11 13 15 17 19 20 18 17 19 19 17 17 18 21 23 20 16 14 16 18 20 20 17 16 15
8 7 6 5 5 6 6 5 6 7 5 2 2 5 9 9 7 8 7 6 6 4 3 4 5 3 1 2 4 4 3 4 3 3 2 1 0 2 3 2 2 2 2 2 2 2 2 3 4 5 4 4 5 6 6 7 7 8 8 8 10 12 14 17 19 21 22 21 20 20 21 21 20 19 20 24 24 21 18 15 16 18 18 16 16 17
8 7 6 5 5 5 5 5 6 6 6 5 5 7 8 5 5 7 7 7 8 8 6 4 4 3 1 1 3 2 3 3 1 3 4 2 1 1 2 2 1 1 3 3 2 1 2 3 4 5 5 5 6 6 7 8 8 8 9 9 9 11 14 18 21 22 21 22 23 24 24 25 25 23 22 25 26 25 22 20 18 19 20 17 15 15
9 7 6 6 6 5 6 6 5 5 8 7 6 6 5 3 6 8 5 5 5 3 3 2 1 2 2 2 2 1 3 4 3 2 5 3 2 2 4 3 1 1 3 3 1 2 3 3 4 5 5 6 7 7 7 8 8 8 9 9 9 11 13 17 21 24 23 22 23 25 26 27 28 26 23 25 28 29 28 26 23 23 24 24 21 17
10 7 4 5 5 5 6 7 6 6 6 2 1 4 4 5 8 6 2 1 3 5 3 1 1 1 3 4 2 1 3 5 4 2 3 1 0 1 5 4 2 3 3 3 4 3 3 4 4 5 5 6 7 7 7 7 8 7 8 9 10 11 13 15 19 22 23 24 24 25 25 26 28 26 22 23 28 31 30 30 28 26 27 28 28 26
13 8 6 6 6 6 7 6 6 6 3 0 1 4 6 6 6 5 2 2 3 8 6 5 4 4 4 5 6 4 3 6 4 1 3 2 2 2 4 4 4 4 4 4 5 5 5 5 5 5 5 6 5 4 5 7 7 6 8 10 10 11 13 14 16 18 21 24 26 25 25 25 27 27 23 23 27 30 31 30 28 27 27 27 28 28
14 9 7 8 8 7 7 7 6 3 1 3 4 5 5 5 5 4 4 2 4 7 5 4 4 3 3 1 5 5 4 4 3 1 4 4 3 2 2 2 2 3 4 4 5 6 6 5 4 4 4 4 4 3 4 8 8 6 7 9 10 10 10 10 12 13 15 20 22 22 23 24 25 26 26 24 23 26 28 26 25 26 26 27 27 27
10 8 7 8 9 9 8 8 6 2 3 3 3 3 3 3 4 4 3 0 3 3 2 2 2 2 1 1 4 3 1 1 3 2 2 3 3 2 1 1 1 1 3 4 5 6 7 6 4 3 3 3 4 4 3 6 9 7 6 7 8 7 6 6 7 9 11 14 15 16 19 22 24 24 25 24 19 18 22 24 24 25 27 28 27 25
5 6 8 8 9 8 7 8 7 2 1 3 3 2 4 4 3 2 1 1 2 2 2 2 3 3 1 2 5 2 4 5 4 3 3 2 1 1 1 1 2 2 3 4 5 6 7 6 5 6 7 6 6 6 4 4 5 4 3 4 6 5 5 5 6 7 9 10 11 12 16 19 21 21 23 23 18 17 22 25 23 23 25 26 23 19
6 7 8 8 8 7 7 8 6 2 1 2 2 3 4 2 1 2 1 3 3 2 4 5 4 2 1 3 6 3 5 6 3 3 2 1 1 1 1 1 1 2 4 4 5 6 7 7 7 5 5 6 6 7 7 4 2 1 4 4 6 6 5 5 5 5 6 7 9 11 13 15 17 19 21 20 17 18 24 26 22 21 23 23 20 15
6 6 6 5 5 5 6 5 3 1 1 2 1 1 2 5 5 2 2 3 3 3 4 3 3 2 0 2 5 4 2 5 3 2 2 2 1 2 2 1 1 2 4 5 6 8 8 8 7 4 3 4 5 5 6 5 3 4 5 6 6 7 7 7 6 6 5 4 3 5 8 10 11 14 18 21 20 21 26 27 24 21 20 20 18 13
2 1 1 2 2 4 4 4 5 2 3 3 3 2 6 9 7 4 4 4 2 1 2 2 2 4 3 2 2 4 3 4 4 3 3 3 3 2 1 1 2 3 4 5 7 8 7 7 7 5 4 5 6 4 4 3 2 4 5 6 7 7 8 8 7 7 9 9 7 3 1 5 7 9 14 20 22 22 26 28 23 20 18 18 17 14
2 2 2 1 1 3 2 7 8 5 5 6 5 3 7 7 4 3 4 3 1 2 1 2 2 2 1 1 2 3 2 3 5 4 3 3 3 2 2 2 3 4 5 6 7 8 6 5 5 4 5 7 8 5 4 3 4 5 5 6 7 7 6 7 7 7 9 11 10 9 8 8 10 10 12 19 22 23 25 25 21 19 19 18 15 12
5 6 7 4 3 2 2 4 5 2 0 5 4 5 8 5 2 2 2 1 3 2 2 2 2 2 1 1 1 2 1 2 5 5 4 3 3 3 3 3 3 4 5 6 7 7 6 6 6 5 5 7 8 7 5 4 6 8 7 6 7 6 6 8 8 9 10 11 11 12 12 11 12 15 17 20 22 21 19 18 18 18 17 15 12 12
4 5 8 7 6 5 2 3 4 4 4 4 5 5 4 2 2 1 2 3 3 1 2 1 1 2 1 1 2 1 2 2 3 4 4 3 3 3 3 4 3 3 5 6 6 6 7 8 7 4 4 5 6 9 11 11 10 9 9 8 7 7 8 9 10 11 11 12 12 12 12 13 15 20 24 24 22 19 14 14 17 18 16 14 15 16
4 4 3 5 7 6 3 4 5 5 4 1 3 6 4 3 3 2 2 1 2 2 1 0 2 2 1 4 4 2 2 3 3 3 4 4 3 3 4 5 3 3 4 6 5 7 8 8 6 5 6 6 5 7 12 14 12 10 9 8 7 8 9 10 11 12 11 12 11 12 13 14 17 20 25 27 26 24 20 19 22 23 21 19 18 16
5 5 3 4 6 4 2 4 4 2 2 3 2 3 5 7 4 2 1 2 3 2 2 1 2 2 2 3 3 3 4 4 4 4 4 4 4 5 6 5 3 2 4 4 4 7 8 7 6 6 7 6 5 5 8 10 11 11 9 7 6 7 9 10 11 11 11 12 12 11 12 15 17 19 23 26 27 28 25 23 24 25 24 22 20 16
4 6 4 2 3 1 1 5 5 1 1 2 3 3 4 7 7 5 4 3 3 2 2 3 3 2 2 3 2 3 5 5 5 4 5 5 5 7 7 5 3 2 3 4 5 7 6 4 5 6 5 6 7 6 5 8 11 11 9 6 6 7 9 10 11 10 11 12 13 12 12 13 15 17 20 23 25 27 27 27 27 25 23 20 19 17
Wind_Direction
214 236 226 233 246 240 232 234 250 267 282 300 309 295 248 260 239 169 158 165 179 241 273 272 283 61 111 134 159 170 202 251 280 289 289 264 246 139 144 197 161 147 142 132 130 130 147 159 151 160 167 166 170 170 160 159 166 159 149 159 167 165 161 159 155 152 154 157 159 159 157 163 165 166 170 170 170 166 163 173 178 182 186 179 170 145
193 243 244 236 243 252 264 272 276 277 283 286 286 289 265 264 260 145 155 163 164 223 272 281 290 106 120 135 140 117 15 345 336 318 311 297 291 106 147 195 152 130 132 129 126 123 144 167 160 161 169 171 174 173 165 162 167 164 153 157 166 165 164 166 161 156 160 164 163 160 157 163 168 170 174 172 169 164 162 172 180 179 180 180 173 152
199 241 253 243 238 280 310 308 299 290 286 283 274 273 268 263 250 148 154 163 160 213 270 276 294 9 101 104 101 83 37 25 6 339 332 317 288 128 149 182 150 146 144 136 141 138 147 167 174 171 173 177 178 176 174 168 164 166 159 156 163 163 160 166 167 163 164 166 164 161 155 156 164 171 173 169 170 170 157 161 175 178 179 181 170 157
245 246 280 338 19 332 298 278 269 273 270 264 261 258 252 249 258 193 158 170 181 209 253 277 286 336 102 106 95 79 59 54 36 2 360 337 280 144 149 162 161 163 155 143 149 147 144 153 172 181 175 179 185 181 175 170 164 165 165 161 165 164 159 165 172 168 163 166 165 160 155 153 158 168 170 167 174 172 154 152 169 178 182 181 170 164
270 286 58 353 326 277 279 270 250 256 259 241 238 251 261 252 255 250 181 178 200 213 213 256 278 256 129 119 92 97 92 61 51 346 8 33 58 137 139 144 162 174 163 151 147 142 132 124 159 204 192 184 206 197 175 169 168 166 167 165 164 164 163 170 174 168 163 167 165 157 155 155 155 162 171 171 173 173 162 159 169 178 184 183 177 168
284 48 68 280 280 257 266 270 242 239 267 255 230 226 246 265 258 258 201 179 234 226 181 221 284 278 148 106 65 54 2 38 38 2 30 59 134 142 128 123 140 187 164 139 131 139 145 138 169 223 231 220 233 218 176 168 174 168 165 166 165 163 165 170 170 167 166 166 164 161 159 160 160 169 180 174 172 178 175 169 172 179 182 185 185 168
285 49 14 301 284 249 247 256 229 220 254 269 285 225 241 291 286 288 295 257 285 348 121 259 307 308 39 70 53 11 1 33 45 36 53 92 133 124 108 121 155 175 146 110 101 118 142 154 171 220 245 241 243 225 178 171 174 164 162 165 167 162 163 170 168 167 168 164 164 166 166 168 168 175 182 178 177 182 179 175 178 180 179 184 185 168
225 219 192 270 268 252 253 253 188 207 261 262 30 343 300 310 299 291 287 271 293 20 50 359 304 290 322 48 37 4 349 28 68 46 59 108 133 117 90 131 166 145 120 102 100 110 122 161 171 185 196 240 250 232 181 171 169 162 163 164 164 162 164 171 169 167 167 165 166 169 172 175 172 172 179 179 177 180 181 181 181 177 177 180 177 169
228 248 218 240 253 254 283 328 127 185 279 7 27 328 296 290 286 290 288 279 297 324 356 301 268 282 312 111 21 37 344 6 78 63 62 117 149 137 95 116 140 106 102 107 122 125 133 173 181 191 190 231 250 235 184 169 168 163 163 162 163 165 168 170 167 167 169 168 169 170 173 174 173 174 178 178 177 182 185 183 179 174 174 177 170 170
271 317 337 293 269 296 327 338 69 194 268 4 2 293 271 276 277 281 280 282 300 282 275 248 230 263 301 153 161 71 20 332 91 95 93 125 147 140 129 173 142 101 93 100 120 118 126 152 177 224 225 252 261 245 186 168 165 162 163 162 164 166 168 170 168 170 174 172 170 170 171 173 179 182 179 182 182 181 180 176 177 176 171 171 168 170
256 6 322 290 283 325 330 316 333 298 297 330 314 277 260 263 270 271 271 288 285 262 288 286 243 241 280 147 152 89 60 23 38 108 135 146 160 162 162 201 172 131 108 125 149 142 150 157 188 220 222 258 263 247 201 184 164 158 165 165 165 167 168 170 170 173 176 176 174 174 176 178 185 185 179 182 179 173 173 173 175 176 171 170 170 171
233 212 231 235 249 295 288 280 294 288 297 303 284 286 283 266 274 274 293 316 277 270 341 313 288 280 294 98 102 74 65 58 45 50 172 166 174 178 184 228 197 143 134 165 166 155 155 157 198 203 184 224 245 226 189 202 172 157 165 166 164 167 168 169 172 174 175 177 179 181 182 183 183 182 179 178 176 172 174 176 173 173 177 175 170 172
242 211 176 189 192 243 266 250 188 215 248 253 246 263 273 279 291 274 313 318 265 272 283 269 293 303 333 78 92 87 84 105 123 180 194 172 175 176 177 205 203 150 152 174 164 158 164 172 195 193 191 210 230 219 153 198 196 162 162 166 166 167 170 171 173 176 176 177 181 183 184 184 182 180 179 176 177 178 177 178 174 173 180 180 173 173
227 165 165 215 170 161 265 259 226 227 235 254 262 273 267 268 278 268 275 285 264 261 241 222 249 277 83 81 99 121 146 156 151 162 157 158 172 176 176 187 192 169 165 176 172 167 174 185 187 185 195 196 185 112 117 150 245 199 163 168 170 167 171 174 175 177 179 179 180 183 184 184 182 179 179 178 179 182 181 180 178 177 181 181 179 177
248 178 186 297 97 130 241 238 297 320 281 258 258 218 254 275 286 285 296 295 286 266 232 205 225 332 87 107 124 136 156 156 137 135 134 154 169 171 171 169 174 169 163 181 182 173 176 183 182 177 180 169 147 141 128 142 191 252 176 172 172 172 175 176 178 179 181 182 180 182 184 183 182 180 180 182 184 183 183 184 183 183 183 181 184 183
292 271 138 126 120 254 266 229 36 294 271 294 276 216 253 355 321 283 289 309 300 290 243 167 111 67 93 113 120 122 140 123 100 112 127 145 161 160 161 158 165 163 158 194 189 172 175 179 186 180 160 140 145 156 140 149 171 201 284 201 177 177 181 178 180 181 182 184 181 183 185 183 183 183 182 183 185 185 187 190 187 186 186 182 184 184
294 315 121 152 220 239 284 318 294 252 262 319 296 260 338 349 324 294 302 324 308 291 281 124 133 127 119 106 105 114 107 94 88 100 112 125 150 151 159 160 166 159 159 188 189 170 180 187 194 190 160 142 153 162 154 162 176 179 254 261 203 183 185 184 182 182 183 184 182 184 186 186 185 185 186 185 186 188 191 194 190 186 190 185 183 184
312 267 150 250 262 208 225 303 293 291 301 290 297 352 345 315 303 310 302 311 302 280 285 354 291 146 129 104 96 112 102 98 101 88 99 113 138 149 165 163 159 157 158 174 181 173 184 194 194 189 172 156 159 169 165 170 184 178 185 247 245 201 189 189 187 184 186 185 184 187 187 188 190 189 192 190 190 192 191 193 194 187 190 190 185 186
295 272 165 216 272 168 143 263 268 250 240 263 304 327 312 261 260 304 296 306 298 284 294 154 288 58 95 113 132 120 110 108 103 67 76 97 109 130 156 156 158 167 163 165 180 184 188 198 195 187 180 162 158 171 171 169 184 191 183 201 246 231 199 192 193 188 188 189 187 190 190 192 194 194 197 195 194 197 192 192 197 193 192 193 188 188
175 279 253 193 273 144 152 235 265 221 202 231 293 287 273 278 322 346 306 298 282 279 295 261 259 52 81 122 142 131 124 110 106 93 39 53 71 82 109 140 151 163 164 168 181 180 178 195 196 185 183 170 163 173 177 176 185 200 192 183 215 240 214 195 199 192 190 194 192 190 191 193 195 196 202 201 196 199 198 197 199 197 193 193 192 190
174 264 286 195 260 288 252 245 322 312 249 264 287 289 300 308 332 312 282 284 294 294 302 293 296 74 85 129 143 139 128 91 92 105 87 46 85 75 75 119 116 132 152 171 195 189 176 179 181 181 190 188 179 174 176 186 191 193 196 189 199 234 226 201 200 199 194 197 196 193 191 192 195 197 201 203 199 200 203 202 200 200 195 193 195 192
250 245 272 258 254 276 276 85 325 301 295 303 302 297 292 284 286 282 275 288 298 298 304 294 296 93 93 117 126 123 104 84 83 111 136 135 123 116 113 124 114 108 144 161 196 202 182 173 173 178 190 189 182 175 172 185 193 192 202 203 197 219 233 213 203 201 199 200 199 196 194 192 193 195 199 202 201 203 205 204 203 203 200 196 196 195
355 282 268 274 271 280 245 120 83 294 298 294 281 281 288 292 296 277 284 310 304 300 299 288 291 107 118 127 123 126 134 118 102 99 85 45 104 142 123 105 99 86 93 106 93 208 176 176 175 169 170 175 175 175 172 181 194 198 204 207 199 206 227 225 213 203 199 202 203 200 198 197 195 194 199 201 202 206 207 205 205 206 208 205 200 197
6 271 268 279 287 295 298 100 172 268 285 276 258 255 271 313 328 301 304 325 312 299 297 292 316 106 139 159 141 145 179 163 140 135 103 58 311 131 100 101 98 92 91 78 54 26 110 164 178 158 150 162 174 178 175 181 194 198 196 204 204 204 222 234 227 212 204 202 205 205 200 201 201 198 200 202 202 207 210 210 208 206 213 218 207 198
338 204 266 286 264 263 266 261 245 233 262 276 275 278 290 322 311 292 308 317 288 300 316 311 328 109 151 187 161 155 184 186 156 145 122 77 291 277 95 107 99 97 106 99 101 106 111 157 184 168 156 161 170 175 176 184 193 193 192 204 208 208 222 235 232 233 230 212 205 209 206 203 206 203 203 205 205 206 209 212 211 206 211 223 220 205
279 147 168 269 269 261 260 272 293 299 300 294 310 323 290 286 292 304 324 297 282 335 346 328 351 97 157 191 174 154 164 163 136 142 145 157 217 213 184 145 123 122 112 100 114 128 140 174 187 193 182 166 163 169 174 184 193 196 200 211 219 216 221 227 220 233 262 243 215 209 210 207 208 208 206 207 209 209 208 210 213 210 209 218 223 217
238 235 221 245 265 286 305 310 279 251 255 266 263 276 285 305 354 338 302 283 328 346 345 27 15 8 172 196 186 140 135 145 170 168 142 146 186 194 174 151 144 137 125 127 133 123 132 170 182 190 196 186 176 172 173 184 189 194 202 212 222 220 214 216 214 222 263 261 234 213 214 211 209 212 210 209 211 213 211 210 212 211 209 213 219 219
251 260 247 239 253 262 262 262 262 250 264 296 315 317 304 328 346 311 289 310 350 314 289 53 33 338 324 333 337 63 106 138 157 142 108 127 206 209 174 160 168 159 141 149 141 118 130 149 165 177 189 204 200 182 175 184 185 186 197 206 215 219 214 212 211 217 244 250 238 222 222 218 214 214 213 213 214 215 217 216 213 211 208 209 216 220
253 271 257 248 262 268 263 260 265 272 283 294 295 272 261 253 238 247 286 304 307 274 279 327 338 298 305 343 12 41 48 59 104 131 183 210 201 210 212 199 189 167 154 149 130 142 163 153 164 180 184 204 216 201 187 186 186 184 188 197 206 211 211 207 205 212 230 239 234 228 224 221 223 224 217 216 216 216 220 222 220 217 211 208 213 218
234 259 254 262 274 276 278 282 283 275 263 261 269 281 287 275 247 236 267 284 286 278 278 295 301 298 339 12 11 41 59 30 83 162 203 195 168 197 252 254 224 166 162 182 161 169 174 148 162 182 191 200 213 219 210 200 194 192 194 202 207 205 197 194 199 208 221 234 235 229 222 218 224 230 226 221 221 221 223 225 226 224 218 214 213 213
188 230 264 282 282 268 265 276 281 280 273 271 277 286 294 300 302 305 298 273 280 291 298 313 311 298 29 32 349 351 68 243 250 220 207 136 157 196 240 264 259 176 172 192 181 182 188 170 180 183 196 210 207 215 227 222 212 210 211 212 217 217 203 192 197 203 208 221 228 225 221 220 221 225 227 228 230 228 222 223 230 233 227 220 217 216
159 232 248 241 265 273 268 272 275 271 263 263 264 257 258 268 280 292 289 270 268 293 299 297 295 308 29 28 337 299 277 263 278 46 62 15 301 261 275 292 305 301 174 187 190 215 231 231 231 210 202 232 235 222 226 230 227 228 228 220 217 221 216 207 206 204 205 215 219 216 215 220 223 223 223 228 237 235 223 219 227 238 238 227 220 220
198 238 245 221 245 267 255 261 280 281 266 261 266 261 252 256 260 261 264 257 245 246 270 281 296 59 49 327 288 286 294 345 50 59 42 353 346 330 306 305 316 335 352 246 223 240 257 255 263 265 235 233 257 250 237 235 237 240 243 245 241 228 225 230 229 225 225 223 220 219 217 216 223 227 226 227 235 237 228 221 223 234 242 236 227 222
230 235 246 233 246 266 261 259 267 267 263 269 322 306 279 271 269 262 263 273 266 250 284 309 318 120 169 260 304 323 342 39 68 85 83 25 341 304 302 307 318 331 336 312 275 269 280 269 266 276 278 271 274 273 262 250 249 251 246 247 251 239 229 233 231 227 229 225 219 222 222 218 222 229 230 230 231 230 226 223 222 227 236 240 236 228
231 235 247 244 243 262 272 271 262 256 262 311 347 278 265 263 271 278 289 310 311 298 291 294 286 275 312 334 314 325 21 51 63 100 107 78 204 292 302 292 305 330 333 328 324 309 300 293 280 277 279 282 280 279 277 265 255 259 253 236 234 231 226 229 229 225 225 223 219 220 219 216 219 224 228 229 228 227 223 219 218 220 226 237 239 235
221 227 242 248 248 255 249 244 251 253 257 267 259 245 246 257 289 298 291 271 263 253 243 262 287 296 333 332 290 316 43 36 349 142 127 100 55 342 300 264 257 326 307 292 293 327 332 304 283 279 276 272 271 267 269 270 264 260 258 247 237 227 221 224 226 224 222 222 220 219 217 217 216 215 219 222 222 224 224 220 217 214 216 225 234 238
221 220 232 239 241 254 258 251 243 240 249 265 277 272 269 250 249 255 251 251 265 255 214 223 347 340 320 289 253 4 17 323 294 115 100 81 53 342 296 279 253 256 264 273 303 32 11 323 293 289 283 269 265 262 261 267 271 268 264 260 257 247 235 230 229 227 226 224 220 218 217 216 215 212 212 216 217 217 220 221 220 215 213 217 223 230
218 199 209 235 235 242 260 264 253 247 255 271 290 276 268 244 252 267 271 268 4 35 51 114 103 7 321 312 305 22 353 301 283 102 88 63 104 281 284 287 300 291 298 337 347 2 10 343 322 308 294 277 269 271 274 271 270 275 276 273 271 265 254 243 235 231 230 229 226 223 220 218 216 213 212 215 216 214 214 217 220 219 216 216 219 221
225 194 188 215 232 239 246 252 253 257 271 157 213 266 268 260 281 320 314 238 72 61 46 35 51 58 32 352 325 321 305 288 286 123 128 184 218 256 286 298 316 327 345 353 336 337 349 336 324 316 301 289 279 282 293 288 280 281 286 282 275 272 268 257 245 237 235 235 234 231 229 226 223 221 220 220 218 215 214 212 213 217 217 216 218 218
222 203 205 218 227 238 241 249 259 259 168 161 211 263 282 281 285 280 255 249 82 86 78 43 26 29 63 11 292 294 287 287 311 100 152 184 209 245 291 306 317 331 340 335 331 338 335 320 313 314 303 298 303 307 306 302 302 300 294 290 281 276 278 271 256 247 242 240 237 234 232 231 229 226 224 223 221 217 213 209 208 211 214 214 216 216
214 204 217 226 231 235 237 248 261 233 155 177 216 262 290 295 279 258 244 52 70 82 79 54 346 317 8 293 277 292 330 82 98 124 215 215 204 217 255 297 303 311 319 328 341 335 316 308 319 334 346 1 341 324 305 296 301 309 312 309 301 292 296 293 272 257 246 240 236 235 232 229 228 226 222 221 219 211 205 205 206 208 211 212 212 213
228 224 223 226 236 239 234 245 256 255 310 335 346 289 257 251 240 229 214 196 175 161 160 191 246 252 197 275 279 249 135 137 144 178 230 238 178 188 260 330 322 316 326 338 342 326 316 330 3 5 356 354 342 336 331 293 284 309 354 355 344 339 328 311 294 272 255 245 236 234 231 228 228 227 219 214 208 201 202 205 207 210 211 211 210 209
226 232 229 224 229 231 230 242 251 243 263 318 333 268 254 244 153 123 164 238 238 212 208 214 229 239 169 251 273 243 149 155 183 197 192 174 142 139 98 25 346 333 338 345 348 347 355 18 38 30 351 339 343 343 336 318 295 25 47 32 13 9 1 343 335 315 283 263 243 232 228 227 230 231 226 218 207 203 207 208 208 211 210 208 210 209
216 227 241 232 221 228 232 228 229 232 203 192 206 256 102 105 119 153 215 243 253 274 269 235 156 121 300 279 287 284 179 161 179 181 157 168 166 128 110 74 18 355 350 360 9 16 32 46 47 33 360 2 11 353 325 318 347 40 45 35 22 21 25 26 25 16 1 345 292 239 229 230 233 232 224 213 201 200 207 208 209 212 211 208 210 202
238 152 242 224 204 248 236 164 152 223 265 242 231 188 125 119 133 187 246 261 247 246 302 307 131 146 179 203 249 272 246 170 160 166 170 175 170 135 109 63 37 23 13 18 20 24 45 63 50 26 21 32 27 360 314 314 11 54 51 39 34 33 34 40 45 44 40 37 38 47 167 203 205 212 210 197 187 193 205 206 204 205 207 208 206 193
248 164 216 243 152 252 217 144 154 195 244 261 259 143 118 115 129 214 250 272 28 58 10 345 15 59 100 147 226 258 255 147 143 151 168 179 164 134 113 85 54 36 27 27 26 25 40 72 68 32 26 41 31 358 319 334 26 54 62 52 48 48 50 57 61 60 56 52 52 64 84 121 146 161 178 180 182 197 208 206 199 195 197 200 195 178
235 221 241 235 168 201 201 147 156 152 337 299 312 93 114 131 166 231 269 48 70 43 18 29 16 353 327 277 268 287 6 100 141 151 158 170 148 119 107 97 70 44 32 33 34 31 35 56 58 26 15 35 26 356 345 16 38 47 55 58 59 62 67 72 69 66 66 62 60 66 73 84 105 118 128 144 163 182 196 199 194 188 184 181 163 135
260 236 247 241 212 211 202 141 138 99 64 7 15 71 107 149 150 140 36 56 86 67 22 42 291 275 265 98 79 57 66 94 133 148 150 152 141 123 108 97 79 48 44 46 42 42 44 47 49 38 34 47 27 5 11 21 25 37 47 53 67 74 70 70 73 70 67 67 65 67 69 70 80 93 100 110 125 136 138 144 153 154 148 140 135 129
280 233 226 247 238 229 184 141 154 152 148 128 54 73 82 65 69 89 77 89 191 197 122 40 294 302 30 86 93 108 123 119 128 143 143 141 140 130 111 96 71 38 50 51 46 53 53 42 39 53 57 55 41 23 27 25 18 26 41 48 66 82 78 73 75 76 73 73 71 71 72 71 72 80 87 93 100 103 101 104 113 117 115 113 121 130
282 255 213 216 236 234 135 142 177 197 198 200 175 117 114 113 120 183 209 224 247 226 127 128 295 312 75 98 113 140 136 129 141 151 141 136 130 115 102 95 78 54 66 62 51 58 55 38 40 58 58 62 73 63 49 43 32 27 34 43 56 81 93 86 77 74 75 75 75 76 77 74 74 77 82 87 91 92 90 87 91 98 102 106 114 123
257 288 298 250 232 277 97 148 161 160 277 188 174 182 154 133 147 192 208 218 270 277 138 172 245 250 107 99 115 141 136 143 160 154 136 128 121 114 114 125 136 102 79 78 69 64 56 43 63 73 69 82 96 94 79 75 63 42 31 37 47 65 87 89 80 75 74 72 74 77 77 77 80 82 83 85 88 91 89 85 84 87 93 101 110 118